Вернуться в каталог

FENGYUN 1C DEB

АктивенSSO
NORAD 38119·DEBRIS·🇨🇳 China

Запущен May 10, 1999 с Taiyuan Satellite Launch Center

Loading…

Ближайшие Пролёты (ближайшие 24 часа)

TLE

СвежийSource: Space-Track

Эпоха: Sep 14, 2026, 09:59 UTC

1 38119U 99025EPQ 26257.41632956  .00007987  00000-0  29552-2 0  9991
2 38119  98.5886 326.7868 0223415 155.7905 205.3968 14.19691989579154

Отслеживайте FENGYUN 1C DEB в реальном времени с AllMySat

Download on the App Store